Weather History for KATT - March, 2013

Change the Weather History Date:

Thursday, March 28, 2013

  Actual Average Record
Temperature  
Mean Temperature 66 °F 65 °F  
Max Temperature 76 °F 75 °F 98 °F (1971)
Min Temperature 55 °F 54 °F 27 °F (1955)
Degree Days  
Heating Degree Days 0 3  
Month to date heating degree days 139 152  
Since 1 July heating degree days 1160 1489  
Cooling Degree Days 1 3  
Month to date cooling degree days 54 50  
Year to date cooling degree days 103 77  
Growing Degree Days 14 (Base 50)    
Moisture  
Dew Point 53 °F    
Average Humidity 68    
Maximum Humidity 83    
Minimum Humidity 53    
Precipitation  
Precipitation 0.00 in 0.09 in 3.26 in (2006)
Month to date precipitation 1.17 2.52  
Year to date precipitation 4.43 6.76  
Snow  
Snow 0.00 in - - ()
Month to date snowfall 0.0  
Since 1 July snowfall T  
Snow Depth 0.00 in    
Sea Level Pressure  
Sea Level Pressure 30.16 in    
Wind  
Wind Speed 7 mph (SSE)    
Max Wind Speed 14 mph    
Max Gust Speed 23 mph    
Visibility 10 miles    
Events      
T = Trace of Precipitation, MM = Missing Value Source: NWS Daily Summary

Daily Weather History Graph

Daily Weather History Graph

Search for Another Location

Airport or City:

Trip Planner

Search our weather history database for the weather conditions in past years. The results will help you decide how hot, cold, wet, or windy it might be!

Date:

Astronomy

Mar. 28, 2013 Rise Set
Actual Time 7:24 AM CDT 7:47 PM CDT
Civil Twilight 7:00 AM CDT 8:11 PM CDT
Nautical Twilight 6:32 AM CDT 8:39 PM CDT
Astronomical Twilight 6:04 AM CDT 9:08 PM CDT
Moon 9:30 PM CDT (3/28) 8:01 AM CDT (3/28)
Length of Visible Light 13h 11m
Length of Day
12h 22m
Full, 98% of the Moon is Illuminated
Mar 28
Full
Apr 2
Last Quarter
Apr 10
New
Apr 18
First Quarter
Apr 25
Full

Hourly Weather History & Observations

Time (CDT) Temp. Dew Point Humidity Pressure Visibility Wind Dir Wind Speed Gust Speed Precip Events Conditions
12:51 AM 57.9 °F 48.0 °F 70% 30.18 in 10.0 mi South 6.9 mph - N/A   Scattered Clouds
1:51 AM 57.9 °F 48.9 °F 72% 30.17 in 10.0 mi Variable 4.6 mph - N/A   Clear
2:51 AM 57.0 °F 48.9 °F 74% 30.17 in 10.0 mi South 4.6 mph - N/A   Scattered Clouds
3:03 AM 57.0 °F 50.0 °F 77% 30.17 in 10.0 mi South 5.8 mph - N/A   Mostly Cloudy
3:33 AM 57.0 °F 50.0 °F 77% 30.16 in 10.0 mi SSE 4.6 mph - N/A   Scattered Clouds
3:51 AM 57.0 °F 50.0 °F 77% 30.15 in 10.0 mi Variable 4.6 mph - N/A   Mostly Cloudy
4:51 AM 55.0 °F 48.9 °F 80% 30.14 in 10.0 mi ESE 5.8 mph - N/A   Mostly Cloudy
5:15 AM 55.9 °F 50.0 °F 80% 30.16 in 10.0 mi East 4.6 mph - N/A   Overcast
5:28 AM 55.9 °F 50.0 °F 80% 30.16 in 10.0 mi ESE 5.8 mph - N/A   Overcast
5:51 AM 55.9 °F 50.0 °F 80% 30.15 in 10.0 mi ESE 4.6 mph - N/A   Overcast
6:51 AM 57.0 °F 51.1 °F 81% 30.17 in 10.0 mi ESE 3.5 mph - N/A   Overcast
7:51 AM 57.0 °F 51.1 °F 81% 30.19 in 10.0 mi ESE 3.5 mph - N/A   Overcast
8:51 AM 57.9 °F 52.0 °F 81% 30.20 in 10.0 mi SE 5.8 mph - N/A   Overcast
9:51 AM 61.0 °F 53.1 °F 75% 30.20 in 10.0 mi Variable 3.5 mph - N/A   Overcast
10:51 AM 64.0 °F 54.0 °F 70% 30.21 in 10.0 mi SSE 8.1 mph - N/A   Overcast
11:51 AM 68.0 °F 55.9 °F 65% 30.20 in 10.0 mi SSE 8.1 mph 17.3 mph N/A   Overcast
12:51 PM 68.0 °F 55.0 °F 63% 30.19 in 10.0 mi South 9.2 mph - N/A   Overcast
1:51 PM 71.1 °F 55.9 °F 59% 30.16 in 10.0 mi South 9.2 mph 17.3 mph N/A   Overcast
2:51 PM 73.0 °F 55.9 °F 55% 30.14 in 10.0 mi Variable 4.6 mph - N/A   Overcast
3:51 PM 73.9 °F 55.0 °F 52% 30.11 in 10.0 mi SSE 11.5 mph 21.9 mph N/A   Overcast
4:51 PM 73.0 °F 55.0 °F 53% 30.12 in 10.0 mi South 9.2 mph 20.7 mph N/A   Overcast
5:51 PM 71.1 °F 55.9 °F 59% 30.12 in 10.0 mi Variable 5.8 mph - N/A   Overcast
6:51 PM 71.1 °F 55.9 °F 59% 30.13 in 10.0 mi SSE 9.2 mph - 0.00 in   Overcast
7:51 PM 69.1 °F 55.9 °F 63% 30.13 in 10.0 mi South 8.1 mph - N/A   Overcast
8:51 PM 69.1 °F 55.0 °F 61% 30.14 in 10.0 mi SSE 10.4 mph - N/A   Overcast
9:51 PM 69.1 °F 55.0 °F 61% 30.15 in 10.0 mi South 9.2 mph 17.3 mph N/A   Overcast
10:51 PM 66.0 °F 55.9 °F 70% 30.15 in 10.0 mi SSE 6.9 mph 17.3 mph N/A   Scattered Clouds
11:51 PM 64.0 °F 55.9 °F 75% 30.16 in 10.0 mi South 8.1 mph 17.3 mph N/A   Clear